Location: Oberkirch
(48.5323°N, 8.0787°E)
Time: 17:59:08
(UTC+00:00)

SR - Visible Passes

Search period start: 18 February 2026 00:00
Search period end: 28 February 2026 00:00
Orbit: 574 x 847 km, 66.7° (Epoch: 17 February)

Date Brightness Start Highest point End Pass type
(mag) Time Alt. Az. Time Alt. Az. Time Alt. Az.
18 Feb ? 02:58:15 15° E 02:58:15 15° E 03:00:05 10° ENE visible
18 Feb ? 04:37:19 45° WSW 04:38:27 66° NW 04:42:56 10° NNE visible
19 Feb ? 03:44:10 50° E 03:44:10 50° E 03:47:54 10° NE visible
19 Feb ? 05:23:13 16° W 05:25:32 25° NW 05:29:18 10° NNE visible
20 Feb ? 02:50:56 18° ENE 02:50:56 18° ENE 02:52:28 10° ENE visible
20 Feb ? 04:29:59 44° WNW 04:30:15 45° NW 04:34:37 10° NNE visible
21 Feb ? 03:36:40 42° NE 03:36:40 42° NE 03:39:44 10° NE visible
21 Feb ? 05:15:43 15° WNW 05:17:32 19° NNW 05:20:52 10° NNE visible
22 Feb ? 02:43:18 17° NE 02:43:18 17° NE 02:44:33 10° NE visible
22 Feb ? 04:22:21 32° NW 04:22:21 32° NW 04:26:15 10° NNE visible
23 Feb ? 03:28:55 32° NNE 03:28:55 32° NNE 03:31:28 10° NNE visible
23 Feb ? 05:07:57 13° NW 05:09:36 15° NNW 05:12:23 10° N visible
24 Feb ? 02:35:26 16° NE 02:35:26 16° NE 02:36:27 10° NE visible
24 Feb ? 04:14:29 24° NNW 04:14:29 24° NNW 04:17:51 10° NNE visible
25 Feb ? 03:20:57 25° N 03:20:57 25° N 03:23:08 10° NNE visible
25 Feb ? 05:00:00 11° NW 05:01:42 13° NNW 05:03:49 10° N visible
26 Feb ? 02:27:25 15° NE 02:27:25 15° NE 02:28:16 10° NE visible
26 Feb ? 04:06:27 19° NNW 04:06:27 19° NNW 04:09:24 10° NNE visible
27 Feb ? 03:12:53 21° N 03:12:53 21° N 03:14:46 10° NNE visible
27 Feb ? 04:52:36 10° NNW 04:53:51 11° NNW 04:55:06 10° N visible
